This is the latest recevied weather packets stored in our database for station/object JR4VEV-13. If no packets are shown the sender has not sent any weather packets the latest 1 day(s).
| Time | Temp. | Humidity | Pressure | Rain* | Wind** | Luminosity | Snow |
|---|---|---|---|---|---|---|---|
| 1836274617 | 30.56° C | 66% | 1009.3 hPa | 0 mm | 1.79 m/s, 252° | - | - |
| 1836274466 | 30° C | 67% | 1009.3 hPa | 0 mm | 0 m/s | - | - |
| 1836274017 | 30.56° C | 68% | 1009.4 hPa | 0 mm | 0.45 m/s, 279° | - | - |
| 1778040159 | 22.78° C | 55% | 1018.5 hPa | 0 mm | 2.68 m/s, 60° | - | - |
| 1778039558 | 22.22° C | 55% | 1018.9 hPa | 0 mm | 0.89 m/s, 72° | - | - |
| 1778038958 | 22.78° C | 55% | 1018.7 hPa | 0 mm | 0 m/s | - | - |
| 1778038357 | 22.78° C | 54% | 1019.3 hPa | 0 mm | 0 m/s | - | - |
| 1778037757 | 22.22° C | 54% | 1019.2 hPa | 0 mm | 0 m/s | - | - |
| 1778037158 | 21.67° C | 54% | 1019.4 hPa | 0 mm | 0 m/s | - | - |
| 1778036558 | 21.67° C | 54% | 1019.6 hPa | 0 mm | 0 m/s | - | - |
| 1778035958 | 21.67° C | 52% | 1019.6 hPa | 0 mm | 0.89 m/s, 15° | - | - |
| 1778035359 | 21.11° C | 52% | 1019.7 hPa | 0 mm | 0.89 m/s, 117° | - | - |
| 1778034758 | 21.11° C | 53% | 1019.8 hPa | 0 mm | 0 m/s | - | - |
| 1778034158 | 20.56° C | 53% | 1019.8 hPa | 0 mm | 1.34 m/s, 104° | - | - |
| 1778033557 | 20.56° C | 52% | 1019.9 hPa | 0 mm | 0.89 m/s, 127° | - | - |
| 1778032959 | 20.56° C | 52% | 1020.2 hPa | 0 mm | 0 m/s | - | - |
| 1778032359 | 20.56° C | 55% | 1020.1 hPa | 0 mm | 0 m/s | - | - |
| 1778031758 | 20° C | 58% | 1020.3 hPa | 0 mm | 0 m/s | - | - |
| 1778031158 | 20° C | 59% | 1020.5 hPa | 0 mm | 1.34 m/s, 123° | - | - |
| 1778030558 | 20° C | 61% | 1020.5 hPa | 0 mm | 0 m/s | - | - |
| 1778029958 | 19.44° C | 62% | 1020.7 hPa | 0 mm | 0.45 m/s, 124° | - | - |
| 1778029357 | 18.89° C | 64% | 1020.6 hPa | 0 mm | 0 m/s | - | - |
| 1778028757 | 18.33° C | 65% | 1020.7 hPa | 0 mm | 0 m/s | - | - |
| 1778028158 | 17.78° C | 64% | 1020.8 hPa | 0 mm | 0.45 m/s, 303° | - | - |
| 1778027559 | 17.22° C | 65% | 1021 hPa | 0 mm | 0.45 m/s, 310° | - | - |
* Rain latest hour (hover to see other rain measurements)
** Current wind speed in m/s (hover to see current wind gust speed)